{"data":{"norad_id":59761,"intl_designator":"2024-091J","name":"STARLINK-11117 [DTC]","alt_names":[],"object_type":"PAYLOAD","status":"ACTIVE","operator":null,"country":"US","launch_date":"2024-05-14","launch_site_code":"AFWTR","launch_vehicle":null,"mission":null,"orbit_class":"UNKNOWN","rcs_meters":null,"size_class":null,"mass_kg":null,"dimensions":null,"purposes":["comms"],"wikipedia_slug":null,"has_3d_model":false,"image_url":null,"decayed_at":null,"tle_current":{"epoch":"2026-09-21T11:08:30.837984Z","epoch_age_seconds":88061,"freshness":"FRESH","line1":"1 59761U 24091J   26264.46424581 -.00000391  00000+0  16287-5 0  9990","line2":"2 59761  53.1587 321.0380 0000718  76.1811 283.9287 15.69706465136262","mean_motion":15.69706465,"eccentricity":7.18e-5,"inclination_deg":53.1587,"raan_deg":321.038,"arg_perigee_deg":76.1811,"mean_anomaly_deg":283.9287,"bstar":1.6287e-6,"rev_number":13626,"period_min":91.73689680892,"perigee_km":359.25308691204,"apogee_km":360.22064559924,"semimajor_km":6737.8738662556,"source":"CELESTRAK","updated_at":"2026-09-22T09:00:49.068636Z"}}}